| time (UTC) | temp F | wind direction | speed MPH | gust MPH | rain 1hr in | rain 24hr in | rain mn in | humidity % | barometer mb |
| 20260504160211 | 60 | 49 | 8.0 | 17.0 | 0.00 | 0.01 | 0.01 | 86 | 1009.5 |
| 20260504150707 | 62 | 59 | 9.0 | 19.0 | 0.00 | 0.01 | 0.01 | 79 | 1009.8 |
| 20260504150207 | 63 | 16 | 9.0 | 19.0 | 0.00 | 0.01 | 0.01 | 79 | 1009.8 |
| 20260504141214 | 65 | 5 | 12.0 | 19.0 | 0.00 | 0.01 | 0.01 | 77 | 1009.2 |
| 20260504130706 | 65 | 2 | 10.0 | 20.0 | 0.00 | 0.01 | 0.01 | 75 | 1010.3 |
| 20260504130219 | 65 | 4 | 10.0 | 19.0 | 0.00 | 0.01 | 0.01 | 76 | 1010.4 |
| 20260504120212 | 66 | 358 | 10.0 | 16.0 | 0.00 | 0.01 | 0.01 | 75 | 1011.1 |
| 20260504110709 | 65 | 9 | 7.0 | 12.0 | 0.01 | 0.01 | 0.01 | 78 | 1011.6 |
| 20260504110214 | 65 | 4 | 7.0 | 9.0 | 0.01 | 0.01 | 0.01 | 81 | 1011.7 |
| 20260504100216 | 63 | 59 | 2.0 | 6.0 | 0.00 | 0.00 | 0.00 | 82 | 1012.3 |
| 20260504081715 | 62 | 188 | 2.0 | 5.0 | 0.00 | 0.00 | 0.00 | 80 | 1012.6 |
| 20260504081216 | 62 | 209 | 1.0 | 5.0 | 0.00 | 0.00 | 0.00 | 80 | 1012.7 |
| 20260504080714 | 62 | 229 | 1.0 | 5.0 | 0.00 | 0.00 | 0.00 | 81 | 1012.7 |
| 20260504070217 | 60 | 0 | 0.0 | 3.0 | 0.00 | 0.00 | 0.00 | 87 | 1012.3 |
| 20260504060210 | 58 | 0 | 0.0 | 1.0 | 0.00 | 0.00 | 0.00 | 91 | 1011.6 |
| 20260504050711 | 56 | 165 | 1.0 | 3.0 | 0.00 | 0.00 | 0.00 | 92 | 1011.4 |
| 20260504050217 | 56 | 178 | 1.0 | 2.0 | 0.00 | 0.00 | 0.00 | 92 | 1011.5 |
| 20260504045717 | 56 | 210 | 1.0 | 3.0 | 0.00 | 0.00 | 0.00 | 92 | 1011.3 |
| 20260504045211 | 56 | 178 | 0.0 | 3.0 | 0.00 | 0.00 | 0.00 | 92 | 1011.4 |
| 20260504044708 | 55 | 160 | 1.0 | 3.0 | 0.00 | 0.00 | 0.00 | 92 | 1011.4 |
| 20260504044217 | 55 | 230 | 0.0 | 2.0 | 0.00 | 0.00 | 0.00 | 92 | 1011.3 |
| 20260504043712 | 55 | 0 | 0.0 | 2.0 | 0.00 | 0.00 | 0.00 | 92 | 1011.2 |
| 20260504043211 | 55 | 203 | 0.0 | 1.0 | 0.00 | 0.00 | 0.00 | 91 | 1011.3 |
| 20260504042711 | 56 | 0 | 0.0 | 2.0 | 0.00 | 0.00 | 0.00 | 91 | 1011.3 |
| 20260504041706 | 56 | 87 | 1.0 | 3.0 | 0.00 | 0.00 | 0.00 | 91 | 1011.2 |
| 20260504040705 | 56 | 189 | 0.0 | 2.0 | 0.00 | 0.00 | 0.00 | 91 | 1011.2 |
| 20260504040210 | 56 | 139 | 0.0 | 2.0 | 0.00 | 0.00 | 0.00 | 91 | 1011.3 |
| 20260504035705 | 56 | 149 | 2.0 | 2.0 | 0.00 | 0.00 | 0.00 | 91 | 1011.3 |
| 20260504034716 | 56 | 188 | 1.0 | 2.0 | 0.00 | 0.00 | 0.00 | 91 | 1011.4 |
| 20260504034205 | 56 | 205 | 0.0 | 1.0 | 0.00 | 0.00 | 0.00 | 91 | 1011.3 |
| 20260504033711 | 56 | 0 | 0.0 | 1.0 | 0.00 | 0.00 | 0.00 | 91 | 1011.2 |
| 20260504033217 | 56 | 210 | 0.0 | 1.0 | 0.00 | 0.00 | 0.00 | 91 | 1011.2 |
| 20260504032719 | 56 | 88 | 0.0 | 1.0 | 0.00 | 0.00 | 0.00 | 91 | 1011.3 |
| 20260504032212 | 56 | 120 | 0.0 | 2.0 | 0.00 | 0.00 | 0.00 | 91 | 1011.2 |
| 20260504031717 | 56 | 126 | 0.0 | 2.0 | 0.00 | 0.00 | 0.00 | 91 | 1011.1 |
| 20260504031208 | 56 | 156 | 2.0 | 2.0 | 0.00 | 0.00 | 0.00 | 90 | 1011.2 |
| 20260504030710 | 56 | 154 | 1.0 | 2.0 | 0.00 | 0.00 | 0.00 | 90 | 1011.3 |
| 20260504025709 | 57 | 268 | 0.0 | 1.0 | 0.00 | 0.00 | 0.00 | 91 | 1011.4 |
| 20260504024714 | 57 | 0 | 0.0 | 0.0 | 0.00 | 0.00 | 0.00 | 91 | 1011.5 |
| 20260504023716 | 57 | 0 | 0.0 | 2.0 | 0.00 | 0.00 | 0.00 | 90 | 1011.4 |
| 20260504022707 | 57 | 265 | 1.0 | 4.0 | 0.00 | 0.00 | 0.00 | 90 | 1011.6 |
| 20260504022209 | 57 | 333 | 1.0 | 3.0 | 0.00 | 0.00 | 0.00 | 90 | 1011.6 |
| 20260504021708 | 57 | 344 | 1.0 | 3.0 | 0.00 | 0.00 | 0.00 | 90 | 1011.7 |
| 20260504020717 | 57 | 0 | 0.0 | 3.0 | 0.00 | 0.00 | 0.00 | 90 | 1011.6 |
| 20260504020216 | 57 | 320 | 0.0 | 3.0 | 0.00 | 0.00 | 0.00 | 90 | 1011.6 |
| 20260504015706 | 57 | 5 | 1.0 | 4.0 | 0.00 | 0.00 | 0.00 | 89 | 1012.0 |
| 20260504014706 | 57 | 344 | 2.0 | 4.0 | 0.00 | 0.00 | 0.00 | 89 | 1011.7 |
| 20260504014207 | 57 | 355 | 1.0 | 5.0 | 0.00 | 0.00 | 0.00 | 89 | 1011.9 |
| 20260504013714 | 58 | 4 | 2.0 | 5.0 | 0.00 | 0.00 | 0.00 | 89 | 1011.7 |
| 20260504013216 | 58 | 305 | 3.0 | 6.0 | 0.00 | 0.00 | 0.00 | 89 | 1011.7 |
| 20260504012210 | 58 | 1 | 4.0 | 6.0 | 0.00 | 0.00 | 0.00 | 89 | 1011.7 |
| 20260504011718 | 58 | 35 | 3.0 | 4.0 | 0.00 | 0.00 | 0.00 | 88 | 1011.7 |
| 20260504011209 | 58 | 5 | 2.0 | 4.0 | 0.00 | 0.00 | 0.00 | 88 | 1011.7 |
| 20260504010719 | 58 | 1 | 2.0 | 4.0 | 0.00 | 0.00 | 0.00 | 88 | 1011.7 |
| 20260504010216 | 58 | 5 | 2.0 | 5.0 | 0.00 | 0.00 | 0.00 | 88 | 1011.5 |
| 20260504005719 | 58 | 21 | 2.0 | 7.0 | 0.00 | 0.00 | 0.00 | 88 | 1011.7 |
| 20260504005215 | 58 | 8 | 3.0 | 7.0 | 0.00 | 0.00 | 0.00 | 88 | 1011.7 |
| 20260504004708 | 58 | 12 | 4.0 | 8.0 | 0.00 | 0.00 | 0.00 | 88 | 1011.7 |
| 20260504004213 | 58 | 358 | 5.0 | 8.0 | 0.00 | 0.00 | 0.00 | 88 | 1011.6 |
| 20260504003707 | 58 | 12 | 5.0 | 8.0 | 0.00 | 0.00 | 0.00 | 88 | 1011.6 |
| 20260504003206 | 58 | 16 | 5.0 | 6.0 | 0.00 | 0.00 | 0.00 | 88 | 1011.6 |
| 20260504002716 | 58 | 1 | 4.0 | 5.0 | 0.00 | 0.00 | 0.00 | 88 | 1011.7 |
| 20260504002212 | 58 | 11 | 3.0 | 7.0 | 0.00 | 0.00 | 0.00 | 88 | 1012.0 |
| 20260504001715 | 58 | 60 | 1.0 | 7.0 | 0.00 | 0.00 | 0.00 | 87 | 1012.0 |
| 20260504001219 | 58 | 22 | 4.0 | 7.0 | 0.00 | 0.00 | 0.00 | 87 | 1012.0 |
| 20260504000704 | 58 | 25 | 3.0 | 8.0 | 0.00 | 0.00 | 0.00 | 87 | 1012.0 |
| 20260504000213 | 58 | 68 | 5.0 | 8.0 | 0.00 | 0.00 | 0.00 | 87 | 1012.0 |
| 20260503235718 | 59 | 67 | 4.0 | 7.0 | 0.00 | 0.00 | 0.00 | 86 | 1012.0 |
| 20260503234714 | 59 | 8 | 4.0 | 7.0 | 0.00 | 0.00 | 0.00 | 87 | 1012.0 |
| 20260503234217 | 59 | 39 | 3.0 | 5.0 | 0.00 | 0.00 | 0.00 | 86 | 1012.2 |
| 20260503233706 | 59 | 12 | 3.0 | 5.0 | 0.00 | 0.00 | 0.00 | 86 | 1012.2 |
| 20260503233215 | 59 | 73 | 3.0 | 6.0 | 0.00 | 0.00 | 0.00 | 85 | 1012.3 |
| 20260503232715 | 59 | 74 | 2.0 | 8.0 | 0.00 | 0.00 | 0.00 | 84 | 1012.3 |
| 20260503232205 | 59 | 19 | 3.0 | 8.0 | 0.00 | 0.00 | 0.00 | 84 | 1012.2 |
| 20260503231712 | 59 | 36 | 4.0 | 7.0 | 0.00 | 0.00 | 0.00 | 84 | 1012.3 |
| 20260503231210 | 60 | 59 | 4.0 | 9.0 | 0.00 | 0.00 | 0.00 | 83 | 1012.3 |
| 20260503230713 | 60 | 30 | 3.0 | 9.0 | 0.00 | 0.00 | 0.00 | 83 | 1012.3 |
| 20260503230205 | 60 | 42 | 4.0 | 7.0 | 0.00 | 0.00 | 0.00 | 83 | 1012.3 |
| 20260503225711 | 60 | 14 | 4.0 | 8.0 | 0.00 | 0.00 | 0.00 | 83 | 1012.3 |
| 20260503225213 | 60 | 5 | 5.0 | 8.0 | 0.00 | 0.00 | 0.00 | 83 | 1012.3 |
| 20260503224217 | 60 | 52 | 4.0 | 8.0 | 0.00 | 0.00 | 0.00 | 83 | 1012.4 |
| 20260503223717 | 60 | 4 | 4.0 | 8.0 | 0.00 | 0.00 | 0.00 | 83 | 1012.3 |
| 20260503223210 | 60 | 12 | 5.0 | 9.0 | 0.00 | 0.00 | 0.00 | 84 | 1012.4 |
| 20260503222717 | 60 | 16 | 4.0 | 10.0 | 0.00 | 0.00 | 0.00 | 83 | 1012.4 |
| 20260503222218 | 60 | 26 | 5.0 | 10.0 | 0.00 | 0.00 | 0.00 | 82 | 1012.3 |
| 20260503221711 | 60 | 39 | 5.0 | 11.0 | 0.00 | 0.00 | 0.00 | 81 | 1012.3 |
| 20260503221211 | 60 | 57 | 6.0 | 11.0 | 0.00 | 0.00 | 0.00 | 81 | 1012.3 |
| 20260503220717 | 60 | 30 | 6.0 | 13.0 | 0.00 | 0.00 | 0.00 | 81 | 1012.2 |
| 20260503220212 | 60 | 21 | 6.0 | 13.0 | 0.00 | 0.00 | 0.00 | 81 | 1012.2 |
| 20260503215715 | 60 | 355 | 7.0 | 13.0 | 0.00 | 0.00 | 0.00 | 82 | 1012.2 |
| 20260503215218 | 60 | 26 | 7.0 | 12.0 | 0.00 | 0.00 | 0.00 | 82 | 1012.3 |
| 20260503214212 | 60 | 9 | 7.0 | 11.0 | 0.00 | 0.00 | 0.00 | 82 | 1012.3 |
| 20260503213713 | 60 | 0 | 8.0 | 12.0 | 0.00 | 0.00 | 0.00 | 83 | 1012.2 |
| 20260503213217 | 60 | 22 | 6.0 | 12.0 | 0.00 | 0.00 | 0.00 | 83 | 1012.2 |
| 20260503211707 | 60 | 11 | 7.0 | 12.0 | 0.00 | 0.00 | 0.00 | 84 | 1012.3 |
| 20260503210711 | 60 | 15 | 6.0 | 11.0 | 0.00 | 0.00 | 0.00 | 83 | 1012.3 |
| 20260503210215 | 60 | 11 | 7.0 | 11.0 | 0.00 | 0.00 | 0.00 | 83 | 1012.3 |
| 20260503205707 | 60 | 9 | 7.0 | 11.0 | 0.00 | 0.00 | 0.00 | 82 | 1012.2 |
| 20260503205210 | 60 | 16 | 7.0 | 11.0 | 0.00 | 0.00 | 0.00 | 82 | 1012.3 |
| 20260503204717 | 61 | 25 | 6.0 | 11.0 | 0.00 | 0.00 | 0.00 | 82 | 1012.3 |
| 20260503204213 | 61 | 30 | 5.0 | 14.0 | 0.00 | 0.00 | 0.00 | 81 | 1012.3 |
| 20260503202210 | 62 | 47 | 6.0 | 16.0 | 0.00 | 0.00 | 0.00 | 77 | 1012.1 |
| 20260503201216 | 62 | 47 | 8.0 | 16.0 | 0.00 | 0.00 | 0.00 | 77 | 1012.0 |
| 20260503200712 | 62 | 9 | 8.0 | 16.0 | 0.00 | 0.00 | 0.00 | 76 | 1012.1 |
| 20260503200214 | 62 | 64 | 9.0 | 16.0 | 0.00 | 0.00 | 0.00 | 76 | 1012.0 |
| 20260503195715 | 62 | 52 | 8.0 | 12.0 | 0.00 | 0.00 | 0.00 | 76 | 1012.0 |
| 20260503195216 | 62 | 59 | 7.0 | 12.0 | 0.00 | 0.00 | 0.00 | 76 | 1012.0 |
| 20260503194715 | 62 | 40 | 5.0 | 15.0 | 0.00 | 0.00 | 0.00 | 76 | 1012.0 |
| 20260503194205 | 62 | 8 | 6.0 | 15.0 | 0.00 | 0.00 | 0.00 | 76 | 1012.0 |
| 20260503193210 | 62 | 54 | 6.0 | 16.0 | 0.00 | 0.00 | 0.00 | 76 | 1011.9 |
| 20260503192709 | 62 | 50 | 9.0 | 16.0 | 0.00 | 0.00 | 0.00 | 77 | 1011.7 |
| 20260503192207 | 62 | 70 | 8.0 | 13.0 | 0.00 | 0.00 | 0.00 | 77 | 1011.7 |
| 20260503191715 | 62 | 46 | 9.0 | 17.0 | 0.00 | 0.00 | 0.00 | 77 | 1011.7 |
| 20260503191217 | 62 | 46 | 7.0 | 17.0 | 0.00 | 0.00 | 0.00 | 77 | 1012.0 |
| 20260503190712 | 62 | 35 | 9.0 | 13.0 | 0.00 | 0.00 | 0.00 | 77 | 1011.9 |
| 20260503190211 | 62 | 26 | 6.0 | 17.0 | 0.00 | 0.00 | 0.00 | 77 | 1011.9 |
| 20260503185719 | 62 | 35 | 8.0 | 17.0 | 0.00 | 0.00 | 0.00 | 77 | 1012.0 |
| 20260503185217 | 62 | 56 | 8.0 | 15.0 | 0.00 | 0.00 | 0.00 | 77 | 1011.9 |
| 20260503184717 | 62 | 57 | 9.0 | 16.0 | 0.00 | 0.00 | 0.00 | 77 | 1011.7 |
| 20260503184219 | 63 | 26 | 7.0 | 16.0 | 0.00 | 0.00 | 0.00 | 76 | 1011.7 |
| 20260503183218 | 63 | 54 | 9.0 | 19.0 | 0.00 | 0.00 | 0.00 | 77 | 1011.6 |
| 20260503182709 | 63 | 54 | 10.0 | 19.0 | 0.00 | 0.00 | 0.00 | 77 | 1011.5 |
| 20260503182208 | 63 | 53 | 10.0 | 19.0 | 0.00 | 0.00 | 0.00 | 76 | 1011.6 |
| 20260503181710 | 63 | 60 | 7.0 | 16.0 | 0.00 | 0.00 | 0.00 | 76 | 1011.6 |
| 20260503181216 | 63 | 57 | 10.0 | 18.0 | 0.00 | 0.00 | 0.00 | 76 | 1011.7 |
| 20260503180707 | 63 | 52 | 7.0 | 18.0 | 0.00 | 0.00 | 0.00 | 76 | 1011.7 |
| 20260503180217 | 63 | 46 | 8.0 | 18.0 | 0.00 | 0.00 | 0.00 | 75 | 1011.7 |
| 20260503175715 | 63 | 64 | 8.0 | 15.0 | 0.00 | 0.00 | 0.00 | 75 | 1011.9 |
| 20260503175211 | 64 | 61 | 7.0 | 15.0 | 0.00 | 0.00 | 0.00 | 75 | 1012.0 |
| 20260503174718 | 64 | 49 | 9.0 | 15.0 | 0.00 | 0.00 | 0.00 | 75 | 1012.0 |
| 20260503174215 | 64 | 60 | 9.0 | 18.0 | 0.00 | 0.00 | 0.00 | 75 | 1012.0 |
| 20260503173705 | 64 | 66 | 8.0 | 18.0 | 0.00 | 0.00 | 0.00 | 75 | 1011.9 |
| 20260503173206 | 64 | 43 | 11.0 | 14.0 | 0.00 | 0.00 | 0.00 | 74 | 1012.0 |
| 20260503172713 | 64 | 50 | 8.0 | 17.0 | 0.00 | 0.00 | 0.00 | 74 | 1012.0 |
| 20260503172238 | 64 | 43 | 8.0 | 17.0 | 0.00 | 0.00 | 0.00 | 74 | 1012.0 |
| 20260503171704 | 64 | 45 | 9.0 | 18.0 | 0.00 | 0.00 | 0.00 | 74 | 1012.0 |
| 20260503171216 | 64 | 57 | 10.0 | 19.0 | 0.00 | 0.00 | 0.00 | 74 | 1012.0 |
| 20260503170717 | 64 | 74 | 11.0 | 19.0 | 0.00 | 0.00 | 0.00 | 74 | 1012.0 |
| 20260503170231 | 64 | 29 | 11.0 | 19.0 | 0.00 | 0.00 | 0.00 | 74 | 1012.0 |